Flag for U.S.A. Weather past 2 weeks in Beaumont, Texas, U.S.A.

Now
80 °F

Passing clouds.


Feels Like: 86 °F
Forecast: 76 / 90 °F
Wind: 5 mph from North

Location: Jefferson County Airport

Current Time: Jul 22, 2014 at 5:15:04 AM

Latest Report: Jul 22, 2014 at 4:53 AM


Visibility: 8 mi

Pressure: 30.00 "Hg

Humidity: 90%

Dew point: 77 °F

Location of BeaumontLocation

Historic Weather in Beaumont — Graph

°F

Beaumont temperature yesterday

Maximum temperature yesterday: 94 °F (at 2:53 PM)
Minimum temperature yesterday: 77 °F (at 3:53 AM)
Average temperature yesterday: 84 °F

Past Weeks' High & Low Weather Summary

 TemperatureHumidityPressure
High94 °F (Jul 21, 2:53 PM)100% (Jul 13, 5:01 AM)30.16 "Hg (Jul 13, 5:01 AM)
Low71 °F (Jul 14, 12:53 AM)50% (Jul 9, 1:53 PM)29.82 "Hg (Jul 18, 5:53 AM)
Average81 °F80%30.00 "Hg
* Reported Jul 7 3:59 AM — Jul 22 3:53 AM, Beaumont, Weather by CustomWeather, © 2014

Note: Actual official high and low records may vary slightly from our data, if they occured in-between our weather recording intervals... More about our weather records

Advertising

Beaumont weather history for previous 24 hours

 ConditionsComfort  
Time TempWeatherWind HumidityBarometerVisibility
3:53 AM
Jul 22
80 °FPassing clouds.No wind90%30.00 "Hg9 mi
2:53 AM80 °FPassing clouds.7 mph90%29.98 "Hg9 mi
1:53 AM82 °FMostly cloudy.5 mph88%30.01 "Hg9 mi
12:53 AM82 °FOvercast.5 mph88%30.00 "Hg9 mi
11:53 PM
Jul 21
82 °FPassing clouds.3 mph91%29.99 "Hg8 mi
10:53 PM82 °FPassing clouds.No wind91%29.99 "Hg9 mi
9:53 PM81 °FPassing clouds.3 mph94%29.98 "Hg10 mi
8:53 PM83 °FMostly cloudy.5 mph88%29.96 "Hg10 mi
7:53 PM83 °FBroken clouds.6 mph82%29.96 "Hg10 mi
6:53 PM85 °FPartly sunny.7 mph80%29.96 "Hg10 mi
5:53 PM88 °FRain showers. Broken clouds.9 mph73%29.96 "Hg10 mi
4:53 PM92 °FMostly cloudy.9 mph66%29.97 "Hg10 mi
3:53 PM92 °FPartly sunny.3 mph60%29.98 "Hg10 mi
2:53 PM94 °FPartly sunny.5 mph52%30.00 "Hg10 mi
1:53 PM92 °FSunny.3 mph56%30.02 "Hg10 mi
12:53 PM92 °FSunny.No wind58%30.03 "Hg10 mi
11:53 AM90 °FPassing clouds.5 mph61%30.04 "Hg10 mi
10:53 AM88 °FScattered clouds.5 mph70%30.05 "Hg10 mi
9:53 AM86 °FPartly sunny.5 mph77%30.04 "Hg10 mi
8:53 AM83 °FPartly sunny.3 mph85%30.04 "Hg9 mi
7:53 AM81 °FFog.No wind94%30.02 "Hg5 mi
6:53 AM79 °FFog.No wind94%30.00 "Hg3 mi
5:53 AM79 °FFog.No wind94%29.99 "Hg5 mi
Weather by CustomWeather, © 2014

See weather overviewHow to use our weather pages